User: anonymous   Login
Location: Niagara
(43.2500°N, 79.0670°W)
Time: 20:33:15
(UTC-05:00)
Language:

Envisat - Orbit

View from above orbital plane
View from above orbital plane
View from above satellite
View from above satellite

Ground track
Ground track

The orbit data is extracted from the following two-line orbital elements,

1 27386U 02009A   18050.83410639 +.00000002 +00000-0 +14351-4 0  9995
2 27386 098.2002 090.3341 0001311 084.6315 275.5012 14.37915684836661
Epoch (UTC): 19 February 2018 20:01:06
Eccentricity: 0.0001311
inclination: 98.2002°
perigee height: 764 km
apogee height: 766 km
right ascension of ascending node: 90.3341°
argument of perigee: 84.6315°
revolutions per day: 14.37915684
mean anomaly at epoch: 275.5012°
orbit number at epoch: 83666

The dashed part of the orbit path shows where the satellite is in the earth's shadow,  

DLR